Location: Unspecified
(0.0000°N, 0.0000°E)
Time: 23:57:59
(UTC+00:00)

Vanguard 3 - All Passes

Search period start: 28 May 2017 00:00
Search period end: 07 June 2017 00:00
Orbit: 508 x 3265 km, 33.3° (Epoch: 27 May)

Date Brightness Start Highest point End Pass type
(mag) Time Alt. Az. Time Alt. Az. Time Alt. Az.
28 May - 07:18:52 10° NNW 07:23:31 30° NE 07:30:44 10° E daylight
28 May - 09:28:55 10° WNW 09:35:51 56° SSW 09:48:27 10° SE daylight
28 May - 11:43:43 10° WSW 11:52:23 24° SSW 12:04:40 10° SSE daylight
28 May - 14:03:50 10° SW 14:13:33 17° S 14:24:30 10° SE daylight
28 May - 16:22:10 10° SSW 16:36:40 24° SSE 16:49:41 10° ESE daylight
28 May - 18:38:18 10° SW 18:56:29 49° SSE 19:08:34 10° E visible
28 May - 20:56:05 10° WSW 21:12:10 69° NW 21:21:10 10° NE visible
28 May - 23:19:26 10° WNW 23:24:46 15° NW 23:28:54 10° N visible
29 May - 08:15:51 10° NW 08:21:31 85° NE 08:31:51 10° SE daylight
29 May - 10:28:25 10° W 10:35:57 31° SSW 10:47:54 10° SSE daylight
29 May - 12:46:27 10° SW 12:54:49 17° S 13:05:11 10° SSE daylight
29 May - 15:05:46 10° SSW 15:17:38 19° SSE 15:29:52 10° SE daylight
29 May - 17:21:48 10° SW 17:39:11 36° SSE 17:52:45 10° E daylight
29 May - 19:38:20 10° SW 19:56:52 79° SE 20:07:52 10° ENE visible
29 May - 21:58:35 10° W 22:10:42 34° NW 22:18:10 10° NNE visible
30 May - 07:03:38 10° NNW 07:08:05 37° NE 07:15:05 10° ESE daylight
30 May - 09:14:14 10° W 09:20:35 44° SSW 09:31:35 10° SE daylight
30 May - 11:29:47 10° SW 11:37:13 19° SSW 11:47:19 10° SSE daylight
30 May - 13:49:19 10° SSW 13:58:25 16° S 14:08:44 10° SE daylight
30 May - 16:05:44 10° SSW 16:21:02 27° SSE 16:35:04 10° ESE daylight
30 May - 18:21:20 10° SW 18:40:30 56° SSE 18:53:33 10° ENE visible
30 May - 20:39:29 10° WSW 20:56:11 61° NW 21:05:53 10° NE visible
30 May - 23:04:27 10° WNW 23:09:16 14° NW 23:13:10 10° NNW visible
31 May - 05:53:09 10° NNE 05:54:58 12° NE 05:57:01 10° ENE daylight
31 May - 08:00:58 10° WNW 08:06:12 75° SSW 08:15:31 10° SE daylight
31 May - 10:14:14 10° WSW 10:20:48 24° SSW 10:30:38 10° SSE daylight
31 May - 12:32:43 10° SSW 12:39:46 15° S 12:48:15 10° SSE daylight
31 May - 14:50:03 10° SSW 15:02:15 20° SSE 15:15:05 10° ESE daylight
31 May - 17:05:01 10° SW 17:23:13 41° SSE 17:37:51 10° E daylight
31 May - 19:21:29 10° SW 19:40:45 89° SE 19:52:38 10° NE visible
31 May - 21:42:36 10° W 21:54:52 30° NW 22:02:45 10° NNE visible
01 Jun - 06:48:28 10° NW 06:52:43 47° NE 06:59:25 10° ESE daylight
01 Jun - 08:59:46 10° W 09:05:26 33° SSW 09:14:42 10° SE daylight
01 Jun - 11:16:13 10° SW 11:22:11 16° S 11:29:49 10° SSE daylight
01 Jun - 13:34:37 10° SSW 13:43:17 16° S 13:53:11 10° SE daylight
01 Jun - 15:49:20 10° SSW 16:05:13 30° SSE 16:20:15 10° E daylight
01 Jun - 18:04:28 10° SW 18:24:20 64° SE 18:38:21 10° ENE visible
01 Jun - 20:22:59 10° WSW 20:40:04 54° NW 20:50:30 10° NE visible
01 Jun - 22:49:40 10° WNW 22:53:50 12° NW 22:57:20 10° NNW visible
02 Jun - 05:37:12 10° N 05:39:40 15° NE 05:42:35 10° ENE daylight
02 Jun - 07:46:12 10° WNW 07:51:00 55° SSW 07:59:10 10° SE daylight
02 Jun - 10:00:24 10° SW 10:05:47 18° SSW 10:13:15 10° SSE daylight
02 Jun - 12:19:12 10° SSW 12:24:46 13° S 12:31:19 10° SSE daylight
02 Jun - 14:34:14 10° SSW 14:46:44 22° SSE 15:00:15 10° ESE daylight
02 Jun - 16:48:19 10° SW 17:07:04 47° SSE 17:22:43 10° E daylight
02 Jun - 19:04:45 10° WSW 19:24:29 82° NW 19:37:15 10° NE visible
02 Jun - 21:26:44 10° W 21:39:01 27° NW 21:47:16 10° NNE visible
03 Jun - 06:33:24 10° NW 06:37:27 64° NE 06:43:43 10° ESE daylight
03 Jun - 08:45:31 10° WSW 08:50:25 24° SSW 08:57:46 10° SSE daylight
03 Jun - 11:03:18 10° SSW 11:07:15 12° S 11:11:55 10° SSE daylight
03 Jun - 13:19:42 10° SSW 13:28:07 16° SSE 13:37:50 10° SE daylight
03 Jun - 15:32:58 10° SSW 15:49:15 33° SSE 16:05:15 10° E daylight
03 Jun - 17:47:44 10° SW 18:07:59 73° SE 18:22:59 10° ENE visible
03 Jun - 20:06:36 10° WSW 20:23:54 48° NW 20:35:01 10° NNE visible
03 Jun - 22:35:04 10° NW 22:38:26 11° NW 22:41:23 10° NNW visible
04 Jun - 05:21:31 10° N 05:24:24 20° NE 05:27:52 10° E visible
04 Jun - 07:31:34 10° W 07:35:56 39° SSW 07:42:48 10° SE daylight
04 Jun - 09:47:08 10° SW 09:50:52 13° SSW 09:55:30 10° SSE daylight
04 Jun - 12:05:51 10° S 12:09:50 11° S 12:14:19 10° SSE daylight
04 Jun - 14:18:22 10° SSW 14:31:06 23° SSE 14:45:19 10° ESE daylight
04 Jun - 16:31:45 10° SW 16:50:44 53° SSE 17:07:24 10° ENE daylight
04 Jun - 18:48:10 10° WSW 19:08:05 73° NW 19:21:45 10° NE visible
04 Jun - 21:10:59 10° W 21:23:11 25° NW 21:31:43 10° NNE visible
05 Jun - 06:18:24 10° NW 06:22:18 89° SSW 06:28:00 10° SE daylight
05 Jun - 08:31:39 10° WSW 08:35:29 17° SSW 08:40:39 10° SSE daylight
05 Jun - 13:04:34 10° SSW 13:12:53 16° SSE 13:22:39 10° SE daylight
05 Jun - 15:16:42 10° SSW 15:33:06 37° SSE 15:50:01 10° E daylight
05 Jun - 17:31:09 10° SW 17:51:29 81° SE 18:07:27 10° ENE daylight
05 Jun - 19:50:22 10° WSW 20:07:42 43° NW 20:19:26 10° NNE visible
05 Jun - 22:20:44 10° NW 22:23:05 11° NNW 22:25:16 10° NNW visible
06 Jun - 05:06:00 10° NNW 05:09:12 28° NE 05:12:58 10° E visible
06 Jun - 07:17:09 10° W 07:20:57 26° SSW 07:26:24 10° SSE daylight
06 Jun - 11:52:57 10° S 11:54:55 10° SSE 11:57:01 10° SSE daylight
06 Jun - 14:02:28 10° SSW 14:15:20 26° SSE 14:30:13 10° ESE daylight
06 Jun - 16:15:19 10° SW 16:34:16 59° SE 16:51:52 10° ENE daylight
06 Jun - 18:31:44 10° WSW 18:51:37 66° NW 19:06:06 10° NE visible
06 Jun - 20:55:24 10° W 21:07:23 23° NW 21:16:08 10° NNE visible
